Showing default

COSMOS 2237, 22565

Orbit data source: Space-Track

COSMOS 2237, 22565 is a payload satellite owned by GRU (CIS) in LEO that was launched on Fri, 26 Mar 1993 UTC via a ZENIT-2 launch vehicle from the Tyuratam Missile And Space Complex (TTMTR). Payload-class satellites include a variety of spacecraft equipped with specific instruments for various scientific and technological missions. These include communications satellites like Starlink; space stations such as the ISS; scientific satellites like the Hubble; Earth observation satellites from companies like Planet Labs, Umbra, and HawkEye 360; GPS; miniature CubeSats for education and research; and military/defense satellites.

Loading next visibility...
Identifier
22565, 1993-016A
Orbit
LEO
Last TLE update
16 hours ago
Origin
Manufacturer
Yuzhnoe
Mission
Defense Sigint
Bus & Motor
TSELINA-2, Unknown motor
Mass
3,250 kg wet, 3,250 kg dry
Launch date (UTC)
1993-03-26 (32 years ago)
Launch vehicle
ZENIT-2
Launch site
Tyuratam Missile And Space Complex (TTMTR)
Object type
Payload
Rocket body
Debris
Shape & HBR
Unknown shape, 19 m
Radar Cross Section
Large (>1 m²)

Expand to show TLE details & history

TLE from 16 hours ago
0 COSMOS 2237
1 22565U 93016A   25128.60085517 -.00000274  00000-0 -12176-3 0  9994
2 22565  70.7921  88.6141 0004415 158.2948 201.8359 14.12479731656225
Epoch: 2025-05-08T14:25Z
Definitive object data (Epoch: 2025-05-08T14:25:13.886Z)
Latitude
-0.00011°
Longitude
5.63719°
Altitude
856.245 km
Speed
7.423 km/s
True Right ascension
05h 54m 27s
True Declination
0° 00' 00"
Sunlit
Object was in daylight at TLE epoch
Visualization TLE readout
Latitude
-26.05413°
Longitude
-166.04059°
Altitude
858.028 km
Speed
7.424 km/s
Apparent Right ascension
21h 37m 44s
Apparent Declination
-53° 16' 54"
Sunlit
Object is in full shadow
Visualization observer readout
Local Sidereal Time
14:50:38
Azimuth
132.509° SE
Elevation
-37.441°
Doppler factor
1
Orbital elements
Apogee altitude
852.037 km
Perigee altitude
845.656 km
Semi-major axis
7,226.983 km
Eccentricity
0.0004415
Inclination
70.7921°
RAAN
88.6141°
Arg. of periapsis
158.2948°
True anomaly
201.81709°
Mean anomaly
201.8359°
Eccentric anomaly
201.82649°
Mean motion
3.53271 °/min
BSTAR
-0.00012176
Orbital period
101.9 mins
Loading maneuver chart data...
Loading SW <> Apogee altitude chart data...
Loading historical data...
Loading historical data...
Loading historical data...
Loading historical data...
Loading historical data...
Loading historical data...
Loading historical data...

COSMOS 2237 Visibility forecast

Observer location: undefined°, undefined°

Span
Click to sort rows by Start time (UTC) header in descending order
Start Az.
Max El. time (UTC)
Max El. Az.
Max El.
End time (UTC)
End Az.
10 mins2025-05-09 07:57:45.401Z345.657° N2025-05-09 08:02:45.401Z45.158° ENE38.321°2025-05-09 08:07:45.401Z136.836° SSE
6 mins2025-05-09 09:44:45.401Z289.125° WNW2025-05-09 09:46:45.401Z263.023° W19.122°2025-05-09 09:50:45.401Z215.72° SW
5 mins2025-05-09 21:09:45.401Z121.091° SE2025-05-09 21:11:45.401Z97.28° ESE15.347°2025-05-09 21:14:45.401Z64.366° ENE
10 mins2025-05-09 22:50:45.401Z214.363° SW2025-05-09 22:55:45.401Z326.514° NNW41.959°2025-05-09 23:00:45.401Z18.135° NNE
|